Location: Coffee Ditch
(40.9640°N, 122.7500°W)
Time: 07:45:29
(UTC+00:00)

Nadezhda 3 Rocket - Pass Details

Date: 08 September 2024
Orbit: 957 x 998 km, 82.9° (Epoch: 05 October)

Event Time Altitude Azimuth Distance (km) Brightness Sun altitude
Exits shadow 12:32:44 13° 215° (SW) 2,503 5.7 -14.1°
Maximum altitude 12:37:59 43° 283° (WNW) 1,339 4.4 -13.2°
Drops below altitude 10° 12:43:55 10° 354° (N) 2,735 6.5 -12.1°
Sets 12:46:36 0° 1° (N) 3,693 7.3 -11.6°
